{"data":{"norad_id":60433,"epoch":"2026-09-21T19:09:10.017504Z","epoch_age_seconds":73378,"freshness":"FRESH","line1":"1 60433U 24144J   26264.79803261 -.00000946  00000+0 -16886-4 0  9990","line2":"2 60433  53.1616  23.4341 0000968  64.6203 295.4900 15.34397174119375","mean_motion":15.34397174,"eccentricity":9.68e-5,"inclination_deg":53.1616,"raan_deg":23.4341,"arg_perigee_deg":64.6203,"mean_anomaly_deg":295.49,"bstar":-1.6886e-5,"rev_number":11937,"period_min":93.847930926911,"perigee_km":462.04944553923,"apogee_km":463.37383383587,"semimajor_km":6840.8486396875,"source":"CELESTRAK","updated_at":"2026-09-22T09:00:49.234978Z"}}